Voltar ao catálogo

STARLINK-36579

AtivoComunicaçõesSSO
NORAD 67541·PAYLOAD·🇺🇸 United States

Lançado Jan 22, 2026 de Vandenberg Space Force Base

Loading…

Próximas Passagens (próximas 24 horas)

TLE

AtualizadoSource: CelesTrak SupGP

Época: Sep 14, 2026, 21:10 UTC

1 67541C 26014K   26257.88243056 -.00029017  00000+0 -90122-3 0  2578
2 67541  97.2845 143.4072 0001754  88.0916 236.5945 15.33436877    12

Acompanhe STARLINK-36579 em tempo real com AllMySat

Download on the App Store